RH
62 61 63 67 68 64 59 64 70 67 66 61 64 69 66 59 55 50 57 60 54 46 24 9 5 4 4 6 9 23 24 24 56 60 68 48 38 36 38 42 96 100 96
68 69 72 71 66 64 71 74 74 70 64 66 70 64 58 55 50 55 62 58 49 26 9 5 5 5 6 11 13 15 23 39 54 41 58 63 71 50 46 41 27 89 100
80 80 77 72 73 80 75 76 73 65 67 71 65 61 58 53 58 62 63 53 28 9 7 6 7 8 13 18 25 20 27 41 56 64 46 69 100 86 60 49 54 48 100
84 77 72 78 78 81 81 77 71 72 74 68 65 63 56 60 69 69 58 33 12 8 8 7 11 12 22 22 29 38 41 40 38 42 58 57 60 52 63 68 67 74 100
79 79 84 86 84 81 78 80 78 74 71 68 65 65 71 82 78 62 42 17 8 10 9 10 15 16 23 25 26 30 45 57 64 57 45 56 53 44 39 69 100 100 99
92 90 82 77 80 87 81 80 77 76 74 68 70 86 97 91 68 48 26 9 12 12 10 10 24 20 21 27 37 46 47 58 76 88 74 64 42 38 41 33 100 100 89
97 87 77 75 83 92 90 84 82 79 81 84 93 99 99 79 52 27 12 12 16 16 14 11 12 30 35 18 18 33 46 81 73 84 91 88 67 41 39 34 85 100 93
90 78 74 80 89 87 87 87 86 93 94 100 100 100 87 56 29 13 13 19 20 20 18 14 11 11 25 21 19 34 63 66 54 62 86 100 90 50 51 32 67 100 100
75 74 77 98 96 93 89 92 94 96 100 100 100 92 61 32 14 14 23 25 24 22 18 14 12 11 21 20 28 52 53 30 31 71 97 100 99 61 45 36 50 99 100
75 79 85 93 89 92 95 96 95 100 100 100 92 61 31 15 13 20 21 23 23 19 15 13 11 10 17 20 42 60 30 20 38 99 100 100 100 80 65 36 33 60 78
84 89 87 88 94 96 95 99 100 100 97 91 60 36 19 13 16 21 22 21 18 15 14 13 11 10 14 30 61 48 23 39 49 93 100 100 100 92 68 32 31 44 58
91 88 88 92 95 97 100 100 100 100 88 62 49 28 10 14 19 20 20 18 15 12 10 9 8 8 14 43 64 27 27 36 61 83 87 80 72 58 37 32 35 42 40
90 93 94 93 99 100 100 100 100 82 67 53 33 14 12 12 15 15 14 11 8 7 7 7 7 7 18 52 66 23 27 33 37 44 48 46 41 30 30 42 42 41 39
96 92 95 100 100 100 100 99 79 67 49 32 17 12 12 12 11 9 7 7 6 7 7 8 8 8 23 66 62 22 24 33 40 48 64 70 37 48 74 71 66 96 100
98 100 100 100 100 100 93 81 69 48 27 16 14 14 10 10 8 6 6 6 6 6 7 7 7 15 31 79 55 21 22 40 43 60 100 93 97 100 100 100 100 100 100
100 100 100 100 98 90 84 66 46 25 16 18 16 13 11 9 7 6 6 6 6 6 7 7 8 26 48 88 43 20 23 39 77 98 99 100 100 100 100 100 100 100 100
100 100 99 96 94 78 59 38 18 19 22 20 18 16 13 10 8 7 6 7 7 6 7 8 10 29 58 81 24 17 22 66 88 100 100 100 100 100 100 100 92 84 97
100 99 99 95 80 59 31 17 18 23 24 27 26 20 15 10 8 7 7 7 7 7 6 8 12 29 53 72 18 12 26 60 89 100 100 98 99 100 100 94 90 92 97
99 98 90 80 56 27 18 21 25 24 23 24 26 19 12 10 8 7 7 6 7 7 7 8 12 29 48 70 25 11 29 63 85 96 100 96 100 100 100 100 100 100 100
97 90 70 33 17 19 22 25 28 30 31 26 16 10 9 9 8 7 7 6 7 8 8 8 10 29 45 71 40 12 50 64 78 91 99 100 100 100 100 100 100 100 98
68 36 22 18 22 27 32 31 30 26 15 12 15 17 13 9 8 7 7 7 7 8 9 8 8 29 39 73 55 16 31 73 71 93 93 100 100 100 100 100 100 88 70
31 20 20 27 31 33 34 26 17 26 33 32 31 31 30 30 31 22 12 9 7 7 9 9 8 26 37 72 61 39 16 71 85 86 99 100 100 100 100 100 100 94 76
21 24 29 35 39 34 17 18 38 39 42 41 39 38 24 19 34 36 30 24 12 8 8 10 9 17 43 64 73 53 24 62 94 86 96 98 100 100 100 100 100 98 90
30 35 41 37 21 14 24 42 44 48 49 49 50 45 41 18 11 13 18 25 22 10 9 10 10 11 45 55 82 59 53 32 97 97 87 97 100 100 100 100 100 98 93
46 37 19 13 14 33 44 46 52 57 58 57 58 52 47 28 13 13 12 10 11 13 10 10 11 11 30 59 87 80 65 63 51 92 100 93 100 100 100 100 100 100 98
18 14 12 16 32 41 45 55 57 58 62 67 63 52 42 28 17 16 17 16 15 12 11 11 11 11 14 62 86 98 74 73 74 87 100 100 100 100 100 100 100 100 95
Wind_Speed
45 47 49 51 53 55 58 61 62 65 67 69 72 73 74 76 81 85 90 94 96 96 90 81 70 69 67 63 57 53 56 60 53 41 45 43 42 42 44 43 44 44 43
48 49 52 53 55 57 59 62 65 66 70 72 73 74 76 81 85 88 92 94 92 87 76 65 63 62 58 50 50 49 47 39 40 35 33 36 37 35 37 39 40 44 42
50 52 52 54 56 58 60 64 66 70 73 72 72 74 79 82 87 90 93 91 86 71 61 58 58 55 49 44 43 41 40 41 43 42 32 35 32 35 35 35 34 44 36
50 52 54 55 55 58 62 66 69 70 71 71 74 78 80 85 89 91 90 85 74 61 56 55 54 49 45 42 43 44 44 43 39 37 35 33 32 30 36 38 36 34 35
51 52 53 55 58 61 65 68 69 69 70 72 76 81 85 87 88 89 86 78 63 53 52 52 51 48 48 49 51 50 48 47 45 43 35 34 32 34 35 34 32 38 37
51 52 53 56 59 62 65 66 68 69 71 75 78 84 86 87 89 86 81 69 52 49 48 50 50 50 51 52 52 53 54 54 53 48 43 37 36 39 37 34 26 35 35
52 52 55 58 59 60 63 66 67 70 73 77 82 85 86 88 85 79 70 58 50 48 48 49 50 52 53 52 52 55 59 60 52 49 47 40 37 36 36 32 34 27 36
50 54 56 57 59 62 64 66 69 73 76 80 83 85 86 83 79 71 61 53 51 49 49 50 53 54 56 53 52 55 58 53 53 50 44 41 38 34 36 30 32 30 32
53 55 56 57 61 63 65 68 70 75 79 81 82 84 82 79 73 62 54 52 50 50 49 51 54 54 56 53 54 59 54 49 48 44 38 37 37 34 32 30 30 29 32
56 56 57 59 62 63 66 69 73 77 78 79 82 80 77 70 63 57 55 53 51 49 50 51 53 54 54 53 58 55 52 45 38 36 33 32 34 33 31 30 29 33 28
58 58 59 59 61 64 68 73 75 76 78 79 77 73 68 63 57 55 54 52 52 52 52 52 52 53 54 52 55 51 44 36 30 22 25 26 27 27 29 27 30 35 30
60 59 58 60 63 68 72 74 74 75 76 75 71 68 61 57 55 55 55 56 57 57 56 56 51 50 49 49 49 44 37 29 23 18 16 15 15 16 17 21 31 33 29
55 57 58 62 67 70 72 73 72 73 72 71 68 61 57 55 54 55 56 58 58 55 52 49 45 44 45 46 45 36 28 22 17 15 14 13 13 13 12 16 24 25 30
56 59 63 66 67 69 71 70 71 70 68 67 62 56 55 54 55 54 54 49 45 45 44 41 38 39 39 42 39 28 21 19 16 13 10 12 12 11 13 16 23 21 16
60 62 65 66 68 68 67 68 69 68 64 58 55 53 53 54 54 51 45 44 41 40 40 35 32 34 35 39 35 22 16 15 15 11 14 13 10 8 7 7 11 8 8
61 63 64 66 65 66 67 66 66 62 55 51 52 53 56 55 51 45 41 41 39 38 37 32 29 31 33 36 32 17 13 12 10 15 9 3 3 2 5 10 14 12 14
62 63 63 64 65 63 62 62 55 50 47 49 52 56 56 55 48 43 39 37 37 36 35 29 27 28 31 31 26 12 11 9 12 6 1 4 4 6 9 10 13 13 12
63 62 63 63 61 61 59 56 50 45 45 50 56 56 56 52 45 40 37 34 33 33 33 28 26 26 28 26 21 11 8 10 8 2 4 5 5 8 12 14 15 15 12
62 62 61 61 60 58 53 47 47 47 50 55 56 57 54 48 44 38 36 34 31 30 29 27 25 24 25 22 19 12 8 10 8 8 7 5 6 8 11 13 17 17 16
60 60 59 57 52 48 46 47 48 52 55 56 56 51 47 46 42 39 36 34 32 28 27 26 24 22 21 20 16 12 10 11 13 13 10 9 8 9 10 11 11 9 8
56 55 54 49 46 47 48 51 53 55 53 50 48 48 47 45 43 42 38 34 30 28 25 24 23 22 20 18 16 13 12 13 16 17 15 12 12 11 10 9 6 3 1
54 50 47 47 48 51 52 53 49 45 46 48 50 51 51 48 46 44 41 37 32 28 25 22 22 22 21 18 16 15 15 15 15 21 20 16 14 12 10 9 8 6 4
46 47 49 50 52 53 52 47 46 48 50 52 53 53 51 49 47 45 42 38 34 30 27 23 21 22 22 19 18 18 18 18 18 19 24 21 16 15 13 12 12 10 7
50 51 52 53 55 52 49 49 52 55 56 58 58 57 54 50 46 43 41 38 35 32 28 26 22 22 22 22 19 20 20 21 21 20 25 26 21 17 16 15 14 12 10
52 54 55 55 52 52 53 56 58 60 62 66 65 60 55 51 47 44 41 38 35 33 30 28 25 23 23 24 21 22 23 23 23 22 24 29 24 20 18 17 16 14 11
56 56 56 55 56 57 61 63 65 68 71 73 67 60 56 54 51 47 44 41 38 36 34 31 29 26 26 26 23 23 24 25 23 23 25 27 25 24 22 20 16 14 13
Wind_Direction
262 267 273 277 282 285 287 293 296 299 299 301 301 303 304 305 305 306 309 310 311 314 322 323 317 314 311 310 307 304 303 304 294 290 292 289 286 275 271 268 258 257 251
263 269 273 278 284 287 291 295 295 297 299 300 302 304 305 305 306 309 310 311 317 323 322 316 316 315 318 317 317 311 313 312 306 308 294 289 282 276 258 259 260 257 242
265 271 279 284 288 293 294 292 295 297 299 301 303 305 305 306 309 310 311 318 324 322 316 317 318 322 320 317 323 322 318 313 307 306 295 299 285 264 257 261 257 262 251
271 278 282 286 289 289 291 293 294 297 300 303 303 304 307 308 310 312 316 323 323 318 317 319 321 321 317 315 316 314 312 312 313 306 305 287 283 275 261 258 255 254 250
274 279 284 288 289 292 290 291 296 298 300 302 305 307 308 309 311 315 321 324 321 315 317 319 320 316 315 312 312 312 308 305 303 302 302 285 286 286 275 266 253 242 243
278 284 288 288 286 287 293 295 295 299 303 305 306 306 308 311 312 318 322 322 316 313 315 317 319 315 313 312 310 309 308 306 301 292 290 287 285 279 280 271 255 244 241
279 285 287 288 289 289 290 294 299 302 304 305 305 306 309 310 315 320 319 318 312 310 313 315 315 314 310 308 310 309 309 307 301 293 281 281 275 279 269 273 257 249 233
285 288 288 287 288 290 294 299 301 303 303 303 304 308 308 315 320 318 316 313 310 311 312 314 315 313 315 310 312 309 310 305 299 296 282 273 270 272 264 269 260 239 225
287 287 288 287 291 295 297 299 300 299 300 302 306 306 314 320 319 315 311 310 310 312 313 313 314 315 317 314 313 314 312 305 298 293 279 270 265 260 267 258 257 233 219
291 291 290 290 293 295 296 297 297 297 301 305 306 313 318 318 314 311 310 311 310 311 312 312 313 315 318 315 317 317 315 310 299 288 278 272 264 262 262 253 252 240 228
290 288 288 290 292 293 294 294 296 300 303 303 309 316 317 314 310 309 309 309 310 312 311 311 312 314 317 318 320 320 322 319 317 298 285 276 266 259 257 241 243 238 231
285 286 288 289 290 291 292 295 298 300 302 308 314 315 314 310 310 310 310 311 312 311 309 307 309 312 316 319 322 325 327 320 320 314 299 285 265 252 239 240 231 229 233
285 285 286 287 288 289 292 295 297 301 306 311 313 312 310 309 309 311 312 313 313 312 310 305 305 309 314 320 323 327 330 333 330 318 305 290 273 253 233 221 227 240 253
282 284 284 285 287 290 292 296 300 305 308 311 310 307 308 308 312 313 314 315 316 315 315 312 306 309 315 321 323 326 326 327 323 317 314 302 271 231 220 214 227 235 233
281 281 282 285 287 290 296 301 303 306 308 306 304 305 309 313 315 316 317 317 320 320 319 315 309 313 317 323 323 322 320 317 313 303 304 284 266 249 243 204 171 163 163
279 280 283 286 291 295 300 302 305 304 302 302 304 308 313 316 317 316 319 319 321 323 321 316 312 315 319 324 323 313 317 313 296 314 304 288 292 253 151 151 150 127 142
279 283 287 290 295 298 301 301 300 301 300 302 304 309 314 315 315 315 317 317 320 322 323 314 311 315 321 326 326 306 315 289 305 313 127 71 76 90 121 130 142 137 123
284 287 290 293 295 298 297 296 295 295 295 300 304 308 311 310 310 311 313 316 319 321 323 314 310 312 318 324 325 310 304 276 291 205 130 95 88 99 104 112 118 114 117
287 290 292 294 295 293 292 292 292 293 295 298 302 306 307 305 307 307 308 311 315 319 321 311 304 308 314 317 319 295 270 262 247 189 160 139 122 122 116 113 107 107 109
290 290 292 290 288 288 289 289 292 295 297 301 303 302 301 300 300 300 300 303 306 310 314 312 299 301 306 308 306 291 249 248 238 202 195 183 171 159 153 143 125 106 97
288 288 287 286 286 287 290 293 295 298 300 301 301 300 299 298 296 295 295 296 296 299 301 307 294 293 294 299 288 276 250 241 237 213 202 199 194 193 191 172 146 136 119
286 283 284 286 287 289 291 294 295 296 298 300 302 301 299 297 295 293 292 292 292 290 289 294 289 283 279 289 271 271 245 235 237 221 209 207 204 206 202 194 180 192 227
282 284 287 287 288 291 293 291 290 295 299 302 304 303 301 296 291 289 289 287 285 284 280 280 280 273 270 276 265 260 244 231 230 228 217 212 211 216 218 219 214 221 234
286 287 287 287 289 289 286 287 290 295 299 302 302 301 298 296 292 289 287 284 281 279 274 270 272 266 264 263 259 250 247 240 229 227 223 218 218 222 227 229 228 226 229
285 285 286 287 286 285 286 289 291 293 296 300 300 296 292 291 288 287 286 284 280 274 271 266 263 263 257 253 255 247 243 241 233 231 222 219 223 228 235 236 235 228 224
285 287 287 286 285 286 287 289 291 293 294 296 296 292 290 286 282 280 281 282 279 273 267 261 259 257 252 248 248 243 238 234 226 230 223 209 213 218 224 229 228 230 231